Location: Northam
(31.6525°S, 116.6655°E)
Time: 22:58:54
(UTC+08:00)

Hubble Space Telescope - Pass Details

Date: 15 May 2021
Orbit: 535 x 539 km, 28.5° (Epoch: 19 June)

Event Time Altitude Azimuth Distance (km) Brightness Sun altitude
Rises 19:39:42 0° 297° (WNW) 2,683 5.4 -28.6°
Reaches altitude 10° 19:42:04 10° 305° (NW) 1,795 4.1 -29.1°
Enters shadow 19:43:53 22° 320° (NW) 1,191 2.9 -29.5°
